Location: Houhaj�rvi
(61.2833°N, 23.0000°E)
Time: 07:50:45
(UTC+00:00)

Cosmos 2263 Rocket - Pass Details

Date: 27 February 2020
Orbit: 822 x 850 km, 71.0° (Epoch: 30 March)

Event Time Altitude Azimuth Distance (km) Brightness Sun altitude
Rises 20:34:37 0° 320° (NW) 3,417 6.5 -32.1°
Reaches altitude 10° 20:37:09 10° 314° (NW) 2,482 5.5 -32.3°
Enters shadow 20:41:30 40° 271° (W) 1,245 3.2 -32.6°
